TimePST,TemperatureF,Dew PointF,Humidity,Sea Level PressureIn,VisibilityMPH,Wind Direction,Wind SpeedMPH,Gust SpeedMPH,PrecipitationIn,Events,Conditions,WindDirDegrees,DateUTC
12:04 AM,53.6,53.6,100,30.03,3.0,NNW,8.1,-,0.02,Rain,Rain,330,2012-11-18 08:04:00
12:21 AM,53.6,53.6,100,30.03,2.5,NNW,6.9,-,0.07,Rain,Rain,330,2012-11-18 08:21:00
12:31 AM,53.6,53.6,100,30.04,4.0,NNW,6.9,-,0.07,Rain,Light Rain,330,2012-11-18 08:31:00
12:56 AM,54.0,54.0,100,30.05,5.0,NNW,5.8,-,0.09,Rain,Light Rain,340,2012-11-18 08:56:00
1:41 AM,55.4,53.6,94,30.04,10.0,NE,4.6,-,0.00,,Overcast,40,2012-11-18 09:41:00
1:47 AM,55.4,53.6,94,30.04,10.0,ENE,5.8,-,0.00,,Overcast,70,2012-11-18 09:47:00
1:56 AM,55.0,54.0,96,30.06,10.0,East,4.6,-,0.00,,Overcast,80,2012-11-18 09:56:00
2:08 AM,53.6,53.6,100,30.05,10.0,ENE,5.8,-,N/A,,Overcast,70,2012-11-18 10:08:00
2:24 AM,53.6,53.6,100,30.05,10.0,East,3.5,-,N/A,,Overcast,80,2012-11-18 10:24:00
2:56 AM,54.0,54.0,100,30.06,10.0,Calm,Calm,-,N/A,,Overcast,0,2012-11-18 10:56:00
3:56 AM,54.0,54.0,100,30.06,10.0,Calm,Calm,-,N/A,,Overcast,0,2012-11-18 11:56:00
4:56 AM,53.1,53.1,100,30.09,10.0,Calm,Calm,-,N/A,,Partly Cloudy,0,2012-11-18 12:56:00
5:56 AM,52.0,52.0,100,30.09,10.0,South,3.5,-,N/A,,Clear,180,2012-11-18 13:56:00
6:56 AM,51.1,51.1,100,30.11,9.0,South,4.6,-,N/A,,Mostly Cloudy,180,2012-11-18 14:56:00
7:56 AM,52.0,48.9,89,30.13,10.0,South,3.5,-,N/A,,Clear,180,2012-11-18 15:56:00
8:56 AM,55.0,50.0,83,30.14,10.0,SE,3.5,-,N/A,,Clear,140,2012-11-18 16:56:00
9:56 AM,57.9,50.0,75,30.15,10.0,Calm,Calm,-,N/A,,Clear,0,2012-11-18 17:56:00
10:56 AM,60.1,48.0,64,30.16,10.0,Calm,Calm,-,N/A,,Clear,0,2012-11-18 18:56:00
11:56 AM,60.1,46.9,62,30.14,10.0,NNE,3.5,-,N/A,,Clear,20,2012-11-18 19:56:00
12:56 PM,62.1,46.0,56,30.13,10.0,NE,5.8,-,N/A,,Scattered Clouds,40,2012-11-18 20:56:00
1:56 PM,64.0,44.1,48,30.14,10.0,NE,4.6,-,N/A,,Scattered Clouds,40,2012-11-18 21:56:00
2:56 PM,63.0,43.0,48,30.13,10.0,Variable,3.5,-,N/A,,Clear,0,2012-11-18 22:56:00
3:56 PM,62.1,42.1,48,30.14,10.0,Calm,Calm,-,N/A,,Partly Cloudy,0,2012-11-18 23:56:00
4:56 PM,59.0,45.0,60,30.15,10.0,NNW,3.5,-,N/A,,Mostly Cloudy,330,2012-11-19 00:56:00
5:56 PM,59.0,46.9,64,30.16,10.0,NW,3.5,-,N/A,,Clear,310,2012-11-19 01:56:00
6:56 PM,57.9,45.0,62,30.16,10.0,Calm,Calm,-,N/A,,Clear,0,2012-11-19 02:56:00
7:56 PM,57.0,46.0,67,30.17,10.0,SSE,3.5,-,N/A,,Clear,150,2012-11-19 03:56:00
8:56 PM,55.9,45.0,67,30.18,10.0,Calm,Calm,-,N/A,,Clear,0,2012-11-19 04:56:00
9:56 PM,55.0,45.0,69,30.19,10.0,Calm,Calm,-,N/A,,Partly Cloudy,0,2012-11-19 05:56:00
10:56 PM,55.0,45.0,69,30.19,10.0,Calm,Calm,-,N/A,,Overcast,0,2012-11-19 06:56:00
11:56 PM,54.0,46.0,75,30.19,10.0,Calm,Calm,-,N/A,,Overcast,0,2012-11-19 07:56:00